Theta_e
313 313 313 312 312 312 311 311 309 306 305 305 307 308 308 308 308 308 307 306 305 305 304 303 303 303 304 304 304 306 308 311 313 313 313 313 311 311 310 308 309 310 309 310 310 311 311 310 311 312 312 310 310 311 311 312 313 314 317 319 319 319 319 318 320 318 317 318 315 314 314 314 313 314 314 314 314 314 315 314 317 323 331 336 337 338 339 338
313 313 313 313 312 311 311 310 308 306 304 305 307 308 308 308 308 307 307 306 305 305 305 304 304 304 304 305 305 307 310 312 313 313 313 313 312 311 310 307 307 309 309 310 310 310 310 310 311 312 311 310 309 309 310 311 311 314 315 316 318 319 316 315 316 315 314 315 314 314 314 313 313 313 313 313 314 314 315 315 315 317 322 332 339 338 339 339
313 313 313 313 312 312 311 309 307 306 304 305 307 308 309 308 307 307 307 306 305 306 306 305 305 305 305 307 309 311 312 313 313 312 312 312 312 311 309 306 306 308 309 311 310 310 309 309 310 311 311 310 308 308 309 310 310 311 311 313 317 317 314 313 314 314 314 315 313 314 313 312 313 313 312 312 313 314 315 314 314 316 319 330 340 340 340 342
314 313 313 313 313 312 311 309 307 305 304 305 307 309 309 308 307 306 307 306 306 307 307 306 306 306 308 309 312 314 313 314 313 312 312 311 310 309 307 305 306 309 310 311 310 310 309 309 310 309 310 309 308 308 308 309 310 309 310 314 315 312 312 313 313 314 313 314 312 312 312 312 313 312 312 312 314 316 315 314 317 321 324 331 340 341 341 344
316 315 313 312 313 313 312 310 307 305 304 305 308 309 309 308 306 306 307 306 306 307 307 307 307 307 309 310 313 314 315 316 314 312 311 309 308 307 305 305 308 311 311 311 310 309 309 309 310 309 309 308 308 308 308 308 308 309 310 311 311 309 311 312 312 313 312 312 312 311 312 312 312 311 311 312 313 315 315 317 321 326 330 333 339 341 342 344
317 316 314 312 312 313 314 311 307 305 305 307 309 310 309 308 306 306 307 306 306 307 307 307 307 308 309 311 313 314 315 316 313 311 309 306 306 305 306 309 310 311 310 310 310 309 310 309 309 309 308 307 307 307 307 307 307 309 309 307 308 308 308 310 311 312 310 310 310 310 311 311 310 310 311 312 313 314 315 317 318 324 333 336 339 341 342 344
317 317 316 314 312 312 314 313 309 305 305 308 310 310 309 308 306 306 307 306 307 307 307 307 308 309 309 311 313 313 313 313 311 311 308 305 306 307 309 311 310 310 310 310 310 310 310 310 309 308 307 308 307 307 307 307 306 308 308 306 308 308 307 309 308 309 309 308 308 309 310 310 310 310 311 311 312 315 316 316 315 320 331 337 339 341 342 343
317 317 317 316 313 311 312 314 310 306 306 309 310 310 310 308 306 306 307 307 307 308 307 308 308 309 310 311 313 313 312 312 312 311 309 307 308 309 310 310 310 311 310 310 310 310 310 310 310 309 308 308 307 307 307 307 307 308 308 307 307 307 307 308 308 309 309 309 309 308 308 310 310 310 310 311 313 315 315 315 314 318 328 336 339 341 342 343
316 317 317 317 315 312 311 314 312 307 307 309 310 310 309 308 306 307 307 307 307 308 308 308 308 309 310 311 313 313 312 312 312 311 311 309 308 309 310 310 311 311 310 310 310 310 310 310 310 310 309 307 308 308 307 308 308 308 308 307 307 307 307 307 308 309 308 309 309 308 308 309 310 309 310 312 313 313 313 314 314 317 322 330 338 341 342 343
316 317 317 317 316 313 310 313 313 308 307 309 310 310 309 308 307 307 307 307 308 308 308 308 308 310 310 311 313 313 312 312 312 312 312 311 310 310 310 311 311 311 310 310 310 310 310 310 310 310 309 308 308 308 307 308 309 308 307 307 306 306 307 307 308 308 308 309 309 309 309 309 309 309 311 313 314 312 312 312 313 315 317 323 334 340 341 342
316 316 316 317 317 313 310 312 314 309 308 309 310 310 310 308 307 307 308 307 308 308 308 309 309 310 310 311 313 313 313 312 312 312 312 312 312 311 311 311 312 311 311 310 310 310 310 310 309 309 310 309 309 308 308 308 308 308 307 308 307 306 306 307 308 308 308 309 309 309 309 308 307 308 311 312 313 312 311 312 312 313 315 319 329 338 341 342
316 316 316 317 317 314 310 311 314 311 308 309 310 311 312 311 308 307 308 307 308 308 308 309 309 310 311 313 313 313 314 313 312 312 312 312 312 312 312 312 312 311 311 311 310 310 310 310 310 310 310 309 309 308 308 309 308 308 307 309 310 309 309 307 307 307 307 309 309 308 309 310 309 309 311 311 312 312 310 311 312 311 312 319 328 336 339 341
315 315 316 316 317 315 310 310 314 312 308 309 311 312 315 316 311 307 308 308 308 308 308 309 309 310 312 313 314 313 314 313 312 312 312 313 312 312 312 312 312 312 312 311 311 311 310 310 310 310 310 309 309 309 309 308 308 308 306 308 312 313 312 307 307 307 307 308 308 308 309 312 313 309 308 310 310 310 310 310 311 311 311 315 326 336 338 340
314 315 315 316 317 315 310 310 313 313 309 309 312 314 317 318 315 310 307 308 308 308 308 309 310 311 312 314 314 314 314 313 312 313 313 313 313 313 312 312 312 312 312 312 312 311 311 311 311 310 310 309 309 309 309 309 309 309 306 307 310 312 314 310 306 306 308 309 308 309 310 312 313 308 306 308 309 309 309 310 310 311 311 311 320 334 338 338
313 315 315 316 317 315 311 309 312 313 309 309 313 317 318 316 317 314 309 308 308 308 308 309 310 311 312 314 314 315 315 314 313 313 313 313 313 312 313 312 312 312 312 312 312 312 312 311 311 310 309 309 310 311 312 313 313 310 308 311 312 312 313 311 307 305 307 308 307 309 311 311 311 307 305 306 307 308 308 309 310 310 311 310 314 327 336 338
312 314 315 316 317 315 311 309 312 312 310 311 315 317 318 315 315 316 312 309 310 310 309 310 310 310 313 314 314 314 314 314 314 313 313 313 313 313 313 312 312 312 312 312 312 312 312 311 310 309 309 309 310 314 318 318 318 315 312 312 312 311 312 312 310 305 305 308 307 308 308 310 309 305 305 307 305 306 307 307 309 309 310 311 311 317 329 337
311 313 315 316 317 315 310 309 311 312 311 313 316 316 317 315 314 315 313 312 313 311 311 311 311 311 313 314 314 314 313 313 313 313 314 313 313 313 312 313 313 312 312 312 312 312 311 311 309 308 310 310 310 317 322 318 320 321 317 315 311 310 311 312 312 307 305 308 307 307 308 309 309 304 307 312 311 310 310 309 309 309 308 310 311 311 318 330
311 313 315 316 317 313 310 310 311 311 312 315 316 315 315 314 314 316 314 313 313 312 313 313 312 314 313 313 313 313 314 313 313 313 313 313 313 313 312 313 312 312 313 312 312 312 311 310 310 313 316 315 315 320 321 315 316 317 316 317 313 312 311 311 312 309 307 310 309 309 309 309 307 305 310 316 317 318 318 317 318 317 312 308 310 310 310 317
310 312 315 316 316 312 309 310 311 312 313 315 316 315 315 313 313 314 314 314 314 314 315 313 313 315 314 313 313 314 314 313 313 313 313 313 313 313 313 312 312 313 313 313 314 312 311 312 313 316 317 317 318 320 320 316 314 313 312 314 312 313 313 311 312 309 307 309 310 308 308 308 307 309 313 316 319 321 321 322 324 324 321 314 310 310 309 311
309 312 314 316 315 310 310 312 312 313 314 315 315 315 315 314 315 316 314 314 314 314 313 312 311 312 313 314 314 314 314 313 313 313 312 313 313 313 313 312 313 314 314 315 315 311 313 319 318 317 317 317 318 317 316 314 313 311 311 313 312 312 313 312 312 310 306 309 310 307 310 311 310 311 313 316 318 319 321 321 322 324 325 323 319 313 311 311
309 312 314 316 313 310 311 313 313 313 314 315 315 316 316 315 317 318 315 314 314 313 312 311 311 311 313 314 314 314 313 313 313 313 313 313 313 313 312 314 314 314 314 312 312 313 318 321 320 319 318 316 316 314 313 313 312 311 312 313 313 312 313 312 312 310 307 310 309 309 317 316 313 313 313 316 318 317 319 320 321 323 325 326 325 322 317 314
308 311 314 315 311 310 313 315 314 313 314 315 315 316 316 315 316 316 315 315 314 312 311 310 311 312 313 314 314 313 313 313 312 313 314 312 313 313 312 315 316 315 315 312 313 320 323 321 320 317 313 313 314 312 312 313 312 312 312 313 314 313 313 312 311 310 309 311 310 312 320 316 312 314 313 315 317 316 318 318 319 322 324 325 326 325 324 322
307 311 314 314 310 311 314 315 314 314 314 315 315 316 316 315 315 315 315 314 313 312 312 312 312 312 313 314 313 313 312 313 313 313 314 313 313 313 312 314 317 316 315 317 318 319 321 324 320 312 310 312 314 312 313 314 315 315 313 313 315 312 311 313 313 311 309 310 309 312 318 315 313 316 314 313 316 316 317 318 318 320 322 324 325 325 326 326
307 311 314 313 310 312 315 314 314 315 314 315 315 315 315 314 314 314 314 313 313 314 314 314 314 313 313 313 313 313 313 312 312 313 313 314 313 313 312 313 315 315 313 317 320 317 318 319 312 310 313 314 313 314 315 314 317 320 315 313 315 313 311 313 312 312 312 311 309 313 318 317 315 315 314 313 314 315 315 316 318 318 319 321 323 325 326 326
307 311 314 312 310 313 315 314 314 314 314 315 314 314 314 314 313 312 313 314 316 317 315 313 313 313 313 313 313 313 312 312 312 313 313 314 313 313 311 311 312 314 315 316 316 316 318 314 309 313 317 314 313 317 317 314 316 320 318 314 314 313 312 311 311 314 318 314 310 311 316 318 317 316 315 314 314 314 314 314 316 317 319 320 322 324 326 326
307 311 313 311 310 313 315 314 314 313 313 315 314 314 314 314 313 312 315 320 320 316 314 312 312 313 313 313 313 312 313 314 313 313 314 313 314 312 312 313 310 312 318 317 314 317 317 313 312 315 316 316 316 317 317 315 315 317 317 315 313 312 312 312 312 313 316 314 309 309 314 317 317 316 314 314 315 315 315 315 315 317 318 319 321 324 325 325
307 311 313 311 310 314 315 314 315 314 314 315 314 315 314 312 313 312 318 326 322 313 313 313 312 313 314 312 312 312 313 315 314 314 314 313 314 312 313 315 312 312 315 314 317 319 317 315 316 316 317 317 316 317 316 314 315 317 314 312 313 312 312 314 314 313 314 313 311 313 315 315 314 314 314 314 315 315 316 316 316 317 318 319 321 323 324 324
307 311 313 310 310 314 315 315 316 315 315 314 313 313 311 311 314 315 322 325 318 312 313 313 312 313 314 313 313 313 313 314 314 315 313 312 313 312 313 313 313 316 313 312 321 320 314 315 316 316 316 315 316 319 316 312 315 318 313 311 313 313 313 314 313 315 314 311 315 317 312 311 314 314 314 315 316 316 317 317 317 317 319 319 320 322 323 322
306 310 313 310 310 314 314 314 316 316 315 313 311 310 309 312 315 318 322 320 313 313 313 313 314 312 313 314 314 313 313 314 315 314 313 313 314 313 314 312 312 317 313 312 323 321 313 313 314 313 314 317 322 321 314 312 313 313 311 312 315 315 316 316 314 317 315 312 316 315 309 310 314 314 315 316 317 317 317 317 317 317 318 319 319 321 322 321
306 310 312 310 310 314 314 314 315 315 313 310 309 310 310 315 320 322 322 317 313 314 313 313 313 311 313 318 317 314 314 315 314 315 314 313 314 313 313 312 312 318 318 315 320 319 312 311 312 312 312 315 318 314 310 311 309 309 310 314 316 317 320 322 319 317 315 315 315 313 311 311 311 314 317 317 316 316 316 317 316 317 318 318 319 319 318 318
306 310 312 310 311 314 314 313 313 312 310 309 310 313 314 318 325 326 320 314 314 317 314 313 314 314 316 319 317 315 315 316 314 316 318 316 317 316 315 315 316 322 325 322 322 319 314 314 312 312 312 312 312 310 309 308 307 309 315 318 315 316 319 321 320 316 314 316 315 313 312 313 313 315 316 315 314 314 315 317 317 317 318 317 316 316 315 315
306 310 312 310 311 314 314 313 312 311 309 310 312 316 320 321 322 322 318 314 316 319 314 312 314 315 317 320 318 315 318 318 314 315 317 317 319 317 316 316 318 322 323 321 321 319 317 315 312 313 314 312 313 314 313 313 312 313 319 322 318 317 317 317 318 316 315 316 313 312 314 315 317 317 315 313 313 314 315 317 317 317 317 316 314 313 313 313
306 309 311 310 312 315 315 315 313 310 310 313 314 317 324 325 318 315 318 317 315 314 313 313 316 316 318 321 318 316 317 317 317 316 314 316 319 318 316 315 314 318 319 316 317 321 322 318 315 317 316 312 314 317 317 316 316 315 316 320 320 320 318 317 317 314 314 316 311 310 315 317 317 316 314 312 313 314 315 316 317 315 314 315 313 312 313 313
307 310 311 312 315 315 316 317 314 312 311 313 315 318 322 322 317 315 318 318 315 314 314 314 318 321 319 319 317 316 317 316 317 318 317 320 323 321 321 319 315 318 320 317 315 318 321 319 317 317 315 314 315 316 315 313 314 313 312 313 316 320 319 315 317 317 316 317 315 313 316 317 318 316 312 311 312 314 314 315 316 314 313 314 313 312 312 312
307 310 311 315 318 316 318 318 316 314 311 313 320 324 321 319 317 317 318 317 315 315 313 313 320 324 320 319 319 316 316 315 317 320 321 321 321 319 320 319 317 317 320 319 315 314 317 318 316 314 313 314 314 314 312 311 313 312 310 312 314 318 321 315 313 316 316 317 317 316 316 316 315 314 311 310 311 313 314 314 315 314 313 313 312 312 312 311
308 310 312 318 318 317 319 318 317 315 311 316 325 325 322 321 318 317 317 314 313 315 315 314 320 324 321 321 323 319 315 315 317 320 320 317 317 317 318 319 317 315 316 318 316 315 317 317 316 315 314 314 313 314 312 310 315 314 310 313 312 312 320 317 312 313 315 317 316 314 316 316 315 315 312 309 309 312 313 314 314 314 313 313 312 312 311 311
308 310 314 318 318 318 318 317 317 315 311 320 328 323 320 320 316 316 317 312 310 317 321 318 315 317 319 319 321 321 319 316 316 319 318 317 317 317 319 321 317 313 315 316 316 315 316 318 317 315 317 316 311 312 312 309 313 316 313 314 312 310 315 317 315 314 315 317 316 314 317 317 317 317 314 310 310 312 313 314 314 314 313 313 312 312 311 311
308 311 315 319 318 318 318 317 317 313 313 322 327 323 320 316 311 312 314 310 311 319 324 320 314 314 316 318 319 320 319 318 318 319 318 317 317 315 319 323 318 313 313 313 315 315 314 318 318 314 316 318 313 312 314 312 311 312 312 312 312 314 317 316 315 316 316 316 316 316 317 318 319 318 314 312 312 313 314 314 314 314 313 313 312 311 311 311
308 312 317 319 318 318 318 317 315 313 318 324 326 322 318 316 312 311 312 311 312 318 320 317 315 314 315 318 319 318 317 318 318 318 317 316 317 315 316 319 317 314 313 312 316 317 315 317 319 316 315 316 317 316 316 317 314 312 313 314 315 318 318 314 313 315 317 317 317 317 316 317 319 316 313 312 312 314 315 314 314 314 313 312 312 311 311 311
309 313 319 319 319 318 317 316 314 316 321 321 322 321 317 316 314 310 312 312 311 314 316 316 316 316 317 317 316 315 317 317 316 317 317 316 318 318 316 316 317 315 313 312 316 318 315 315 317 319 318 315 317 316 314 315 315 314 318 319 318 317 314 313 313 313 316 318 319 318 317 317 317 315 313 313 313 314 313 313 313 313 312 312 311 311 311 311
309 314 320 319 319 318 316 316 314 315 319 317 317 320 317 316 314 310 311 312 311 312 314 317 318 317 318 317 314 315 319 319 316 317 318 317 318 319 316 315 315 314 313 314 318 318 315 316 316 319 320 318 317 316 314 313 313 313 315 315 315 315 314 316 317 313 314 317 316 318 319 317 316 316 316 315 314 314 312 311 312 312 312 312 311 311 311 311
310 315 319 319 319 317 316 318 313 311 319 320 317 318 318 316 314 311 311 311 312 312 312 317 318 318 320 318 315 317 320 321 319 318 318 316 317 318 315 313 313 313 314 315 317 316 315 316 316 316 318 318 318 316 313 312 312 312 313 312 313 315 316 320 320 315 315 314 312 316 320 318 315 316 316 314 313 312 311 311 312 312 312 311 311 311 311 311
310 314 317 317 318 317 316 320 318 317 321 319 315 315 316 315 313 312 312 312 312 312 312 315 315 315 318 315 315 319 318 318 319 319 318 317 318 318 315 313 313 313 314 315 316 316 316 316 315 315 317 317 318 316 311 310 312 312 313 313 313 314 314 317 318 316 316 316 315 318 320 317 315 313 312 311 311 311 310 311 312 312 312 311 311 311 310 311
310 313 317 317 317 316 316 318 320 322 323 319 317 319 316 313 313 313 313 313 312 313 315 317 314 313 314 313 315 317 314 315 317 317 316 317 319 317 313 314 314 312 313 315 315 316 315 315 315 317 319 318 318 317 314 314 314 313 313 312 312 312 312 313 314 314 315 316 316 318 318 316 314 312 311 310 310 310 310 311 312 312 312 311 311 311 310 310
312 314 317 317 317 316 316 316 316 321 324 320 320 322 319 315 313 312 313 313 311 311 314 314 312 313 315 313 315 316 314 314 315 315 316 318 319 317 312 313 313 312 314 314 314 316 315 314 315 317 319 317 318 318 314 314 314 312 312 313 311 311 312 313 314 316 316 313 314 318 319 315 312 312 312 312 311 311 310 311 312 311 312 312 310 310 310 310
314 316 316 317 317 315 315 315 314 318 320 319 320 320 319 317 313 311 311 311 310 310 311 311 312 314 315 314 317 319 316 313 314 316 319 320 322 318 313 313 313 314 317 315 312 315 316 313 312 316 318 317 317 316 312 311 313 313 313 314 313 310 310 311 315 318 316 314 316 317 315 312 312 312 312 313 313 313 310 310 312 311 311 311 310 309 310 310
315 317 315 315 316 316 315 314 314 315 316 317 319 318 318 320 316 312 311 311 311 310 310 311 312 314 316 316 317 318 316 315 315 317 319 320 322 318 313 313 315 317 318 314 311 316 319 315 311 313 315 314 314 314 312 312 313 312 312 314 314 312 310 312 315 314 312 315 317 314 310 312 312 312 313 314 313 312 309 310 312 311 311 311 310 309 309 309
315 316 314 313 314 316 316 314 314 316 315 315 317 317 318 321 319 316 314 312 311 311 310 311 313 316 317 316 317 317 316 316 316 316 317 318 319 319 316 313 315 316 315 313 312 316 320 317 312 312 313 313 314 314 312 313 313 311 313 314 314 313 311 313 314 310 310 316 317 312 311 313 313 313 315 315 312 310 310 310 312 311 311 311 310 310 309 309
315 315 313 313 314 314 314 313 313 315 317 317 319 318 318 321 320 317 314 313 315 313 310 312 316 318 319 318 318 319 318 316 315 316 318 318 317 318 317 315 314 312 313 315 313 312 315 316 314 314 314 315 317 315 313 314 313 313 314 313 314 314 312 312 312 310 310 313 313 312 312 314 314 314 314 312 309 309 310 311 312 311 311 310 310 310 309 309
314 315 313 313 314 313 313 314 314 316 317 316 318 319 317 320 320 316 313 314 318 315 310 313 319 318 318 320 320 320 320 318 317 316 317 317 316 316 317 316 315 313 314 315 313 311 313 314 314 315 316 316 317 316 316 316 315 315 315 314 314 313 311 310 311 310 311 311 311 311 312 313 313 310 309 309 310 310 311 311 311 311 310 310 310 310 309 308
313 316 314 314 316 315 315 314 313 316 318 317 318 319 318 319 318 315 314 313 315 316 314 317 321 318 316 318 319 318 317 316 316 315 315 316 315 315 317 315 314 316 316 314 313 314 315 314 313 315 318 318 315 314 316 316 315 315 315 314 314 312 311 311 311 311 312 312 310 309 311 315 312 306 307 310 309 310 311 311 311 311 310 310 310 310 309 308
313 316 315 315 316 315 315 315 312 315 319 318 318 318 317 317 315 313 315 313 312 313 314 314 315 315 316 317 318 317 313 312 314 314 313 314 313 312 314 313 312 315 316 314 314 314 315 317 317 315 317 317 313 314 316 316 317 317 313 312 315 314 313 312 311 311 311 311 312 313 315 317 312 307 310 312 309 309 311 311 311 311 310 310 310 310 309 309
Wind_Speed
22 23 23 22 21 19 17 18 19 19 16 14 13 12 12 13 13 12 10 9 8 8 9 9 8 7 6 5 4 2 2 3 3 3 4 5 4 4 8 5 5 5 6 8 7 5 4 3 3 5 5 6 7 7 9 7 8 7 2 3 2 3 3 4 5 4 3 2 4 3 4 3 4 11 12 11 11 13 17 15 15 13 9 16 19 17 14 18
23 23 23 22 21 20 19 19 20 19 16 14 12 12 13 14 14 12 9 7 7 7 8 9 8 7 6 5 5 3 3 3 2 3 5 5 4 5 6 3 4 4 6 8 8 6 5 4 5 6 6 6 6 6 9 7 8 5 3 2 3 4 4 5 5 5 3 6 8 8 8 3 3 9 10 7 9 13 13 14 17 19 15 11 14 14 12 19
23 24 24 23 21 21 21 21 21 20 16 13 12 13 14 15 14 11 8 6 6 7 8 8 7 7 7 6 5 5 3 2 2 3 5 6 5 5 5 2 6 4 7 9 9 8 7 5 6 8 8 6 5 6 7 5 7 4 3 2 4 6 4 6 9 10 11 12 10 9 7 4 8 10 7 4 7 10 7 9 13 17 21 12 7 9 13 21
22 23 23 23 22 21 22 22 22 20 16 13 12 13 14 15 14 11 7 5 5 7 8 8 7 7 7 6 6 5 4 2 3 5 6 6 5 4 3 5 8 6 8 10 9 9 10 8 7 8 8 5 4 5 4 3 5 2 4 4 6 6 3 7 11 13 16 14 9 6 5 7 11 9 7 5 3 6 7 9 10 14 18 10 8 12 19 26
21 23 23 24 23 22 22 23 22 19 15 13 13 14 15 14 14 11 6 4 5 6 7 7 7 7 6 6 6 6 4 2 4 7 6 5 3 2 6 9 9 8 10 11 10 10 12 11 9 9 7 4 3 4 2 1 4 2 3 6 7 6 3 8 12 13 15 12 8 5 4 6 8 7 8 5 3 4 6 11 12 12 11 7 9 15 23 28
21 22 23 24 24 23 22 22 22 19 15 13 13 14 15 14 13 10 5 4 5 5 6 7 7 6 6 6 6 7 5 3 5 10 8 4 4 7 11 11 10 10 11 13 12 12 13 12 11 8 5 4 3 3 5 5 4 3 2 3 5 4 3 9 12 13 13 9 7 4 3 5 4 6 6 6 7 5 5 10 12 12 7 4 10 16 23 29
20 21 22 23 24 24 23 22 21 19 15 13 14 15 15 14 13 9 5 3 4 5 6 6 6 6 5 7 6 6 7 5 7 11 10 6 9 11 12 10 9 9 11 13 13 13 14 15 12 8 5 4 3 1 6 6 5 4 1 3 6 6 6 11 12 14 15 13 13 8 4 5 5 4 4 6 9 5 3 7 10 11 7 2 10 17 23 28
20 21 22 23 24 24 24 22 21 18 15 14 14 15 15 14 12 8 4 3 4 4 5 5 6 6 6 7 7 5 5 6 6 10 10 9 12 11 10 8 7 7 9 11 13 13 14 15 11 7 4 3 1 1 5 5 3 3 1 5 6 7 8 9 9 11 12 12 13 8 6 9 9 6 4 7 7 3 2 5 8 9 5 1 9 16 23 27
20 21 22 23 24 24 24 22 20 18 15 15 15 15 14 13 11 7 4 3 3 4 4 5 6 6 6 7 8 5 4 4 4 6 8 9 10 9 8 7 6 8 8 9 12 13 12 13 10 5 2 2 2 3 4 4 1 1 2 6 7 9 11 7 6 5 5 7 6 5 5 9 11 5 5 8 8 3 1 3 6 7 3 0 7 16 22 26
19 20 21 22 23 24 24 22 20 17 15 15 15 14 13 12 10 6 4 2 3 3 4 5 6 6 6 7 7 4 4 4 3 4 5 6 6 6 5 5 5 7 7 7 9 11 11 10 9 6 3 2 3 3 2 3 2 5 5 7 6 10 10 5 3 3 4 5 4 5 5 6 8 5 4 6 8 5 5 4 6 7 5 3 7 15 21 26
19 20 20 20 22 23 24 22 20 17 15 14 14 13 13 12 9 6 4 2 2 3 4 6 7 7 6 7 5 3 3 3 3 4 3 3 4 4 3 3 4 6 6 6 7 6 7 8 8 6 1 2 3 4 1 1 6 8 5 5 6 8 5 4 4 3 6 4 6 6 4 3 3 3 5 6 7 9 9 8 10 11 10 7 8 14 21 25
19 19 20 20 21 22 24 23 20 17 14 13 12 11 12 12 9 6 4 2 2 3 5 6 7 8 7 6 2 2 2 2 1 3 2 2 2 1 2 3 3 4 5 4 4 4 5 6 7 6 2 2 3 3 3 6 8 5 3 3 7 8 5 5 6 3 4 3 5 4 2 5 2 5 8 9 10 10 9 11 14 15 13 10 11 15 20 24
19 19 19 20 20 22 24 22 19 17 14 13 10 10 11 10 9 6 4 2 2 3 5 6 7 8 7 5 2 1 3 2 1 1 2 2 2 1 3 3 3 3 3 3 3 3 5 5 8 8 5 3 2 2 5 9 6 2 2 3 4 7 3 5 9 6 4 3 2 2 1 6 7 9 7 8 11 10 9 12 13 13 15 14 13 17 21 23
19 19 19 20 19 21 23 22 20 16 14 12 9 9 10 10 8 6 4 3 3 4 5 6 7 8 7 4 2 3 2 1 1 2 2 3 2 3 3 2 3 2 3 2 2 5 5 7 10 9 6 3 3 4 5 6 4 1 2 3 3 4 3 9 8 6 5 4 3 3 3 5 8 10 11 7 8 9 10 13 12 11 14 15 13 17 21 24
19 19 19 19 19 21 23 22 20 16 14 11 8 8 9 9 9 6 5 4 4 6 6 6 6 8 8 3 1 2 2 2 2 2 4 4 4 3 2 2 3 3 3 4 4 5 6 8 9 7 4 4 3 3 4 4 4 3 2 1 3 3 3 9 5 3 4 4 4 5 2 5 7 6 12 11 6 7 10 11 10 11 12 14 14 15 20 24
18 19 19 19 19 20 23 22 19 16 13 10 8 8 8 9 10 5 4 5 6 6 6 6 6 7 6 1 1 1 1 3 6 6 6 5 4 3 1 3 3 2 4 3 3 5 7 6 4 4 3 2 2 4 4 4 4 4 3 1 2 3 3 6 5 3 3 3 4 5 1 3 4 8 16 16 9 3 4 6 7 9 11 13 14 14 16 21
18 19 19 20 19 20 22 22 20 15 11 10 9 8 8 11 9 2 4 8 7 6 6 6 6 6 3 1 1 2 5 6 6 7 7 6 5 4 3 4 3 3 3 2 2 4 3 2 2 1 3 4 3 4 4 4 3 4 3 2 1 2 2 3 5 5 7 4 3 5 1 3 5 11 22 23 18 15 13 10 8 8 11 12 14 15 15 18
19 19 19 19 19 21 22 21 20 13 9 9 9 10 9 8 6 2 4 11 9 6 5 4 4 3 0 0 0 3 8 8 5 6 8 8 7 5 3 5 6 5 2 2 1 4 3 2 3 1 3 4 3 5 4 1 2 2 1 2 2 3 2 3 4 4 8 6 4 6 3 5 8 10 20 25 23 23 22 19 17 16 12 11 13 14 14 16
19 19 19 20 19 22 22 21 19 12 8 8 8 10 7 5 3 0 7 14 8 3 2 2 2 0 3 5 5 6 10 8 6 6 7 6 5 5 3 4 7 3 2 2 2 4 3 3 4 2 2 3 2 4 5 6 6 4 3 3 2 2 3 5 5 5 4 5 5 6 5 6 8 9 16 22 23 25 24 24 24 24 19 13 12 13 15 16
20 19 20 20 20 23 23 22 17 10 8 7 8 8 6 7 3 2 14 15 4 3 6 7 7 8 9 8 6 9 9 6 6 4 3 3 3 6 3 2 3 1 3 1 1 3 4 3 1 3 4 6 6 4 5 5 5 3 3 3 3 3 3 5 5 6 3 2 4 4 5 6 7 7 11 18 24 25 24 24 25 25 24 20 15 13 14 15
21 19 20 20 21 23 23 22 15 7 7 7 7 6 7 9 4 5 15 12 4 7 9 6 7 10 10 6 8 11 9 4 2 3 2 4 6 6 2 0 1 2 2 1 1 2 4 3 3 6 7 6 5 4 5 4 4 3 3 2 2 3 4 6 3 5 4 2 3 3 6 6 6 5 9 17 19 18 19 20 22 24 24 23 22 19 16 14
21 20 20 20 22 23 22 20 12 4 5 5 6 8 9 8 5 5 9 8 10 11 7 5 6 9 9 7 9 9 6 3 2 2 3 6 6 4 1 2 3 0 2 3 2 4 4 1 6 7 4 3 1 3 4 3 4 3 2 1 2 3 3 5 3 4 4 3 1 2 6 4 6 3 7 14 13 13 19 19 19 22 22 23 24 24 22 18
21 21 20 20 23 23 20 16 7 2 2 4 6 8 8 6 4 6 6 7 11 9 5 3 4 5 7 6 6 4 3 2 2 2 3 6 4 1 2 3 3 1 3 3 3 2 2 5 7 3 3 4 2 2 4 3 1 2 3 3 2 3 0 3 3 4 4 2 2 3 5 2 5 4 5 12 13 14 21 22 23 24 22 22 22 22 23 22
21 22 20 21 22 22 18 11 3 3 2 3 5 6 4 4 4 7 7 4 5 5 4 2 0 2 5 4 1 2 3 3 3 2 2 5 4 2 2 3 4 1 1 1 6 4 4 7 3 3 4 3 1 2 4 3 2 2 3 4 3 3 3 4 3 3 4 4 2 5 4 4 4 5 4 8 10 12 19 24 26 28 26 25 25 24 23 23
21 21 21 22 22 21 16 7 1 2 2 2 3 4 4 5 7 8 6 1 3 5 3 2 1 2 4 3 2 3 4 3 3 3 2 5 5 3 1 2 3 1 2 2 5 2 5 5 1 4 4 3 2 1 2 5 1 4 3 6 7 6 5 4 2 4 4 4 3 4 3 4 4 4 5 6 6 8 15 19 22 26 29 29 29 27 25 24
20 20 21 22 22 21 11 3 2 0 2 0 2 5 7 8 10 8 3 3 2 4 2 3 2 2 4 2 2 2 3 3 6 5 3 6 4 3 1 1 1 0 3 3 2 1 3 2 3 3 4 5 4 3 4 5 4 2 4 6 6 5 4 2 2 3 2 2 3 3 4 3 4 4 6 7 5 6 12 15 18 21 26 28 28 26 25 25
19 19 21 22 22 20 8 2 5 2 2 3 4 7 9 10 10 6 2 4 2 3 2 2 2 2 4 2 1 1 1 4 7 6 1 5 3 2 1 2 0 0 1 3 2 2 3 3 5 5 5 5 4 2 3 5 7 2 5 4 6 5 5 4 4 3 2 2 3 4 4 2 2 3 5 7 4 7 11 13 15 17 23 27 26 25 23 23
18 18 19 20 21 18 9 4 6 3 3 6 8 9 9 9 7 3 4 3 2 3 1 2 2 4 6 3 1 0 0 3 3 4 3 2 2 1 1 1 4 2 2 4 1 4 1 1 2 3 4 3 2 4 5 6 4 4 5 5 5 4 4 4 4 3 0 2 3 5 3 2 3 4 5 6 5 9 11 10 11 14 20 25 24 23 21 20
18 18 18 20 18 15 10 6 5 4 7 9 9 9 8 7 4 2 5 2 2 2 1 3 3 6 8 5 5 6 4 4 4 3 2 2 1 1 2 0 4 4 3 4 3 4 1 3 3 3 2 2 5 4 5 7 3 2 4 5 4 4 4 3 4 3 2 2 3 5 2 1 3 4 6 6 5 8 8 7 10 14 20 24 23 20 19 19
16 16 17 19 17 13 9 6 5 6 9 9 9 8 6 4 1 3 3 0 1 2 2 3 3 6 9 5 5 9 5 4 8 7 4 5 5 5 5 2 4 5 2 4 1 4 5 4 2 3 1 4 5 1 2 6 3 2 5 4 4 4 5 3 3 3 3 1 5 6 2 2 1 3 3 5 5 8 7 6 9 16 22 23 19 18 19 19
16 16 16 18 16 12 9 7 6 8 9 10 10 8 3 2 3 5 1 2 1 3 3 3 3 4 7 4 3 7 4 5 9 8 5 5 6 6 5 2 3 4 3 5 3 5 7 4 0 2 2 2 0 1 2 1 1 3 4 4 2 2 4 4 4 3 3 2 5 4 1 4 1 2 2 5 6 7 7 7 8 12 19 20 18 18 19 21
16 15 14 17 14 9 8 7 7 9 9 10 10 5 1 1 3 2 1 2 2 2 2 1 3 3 4 4 3 4 3 4 6 6 3 2 4 4 3 1 1 3 3 3 3 5 4 1 3 5 3 6 5 1 1 4 5 5 4 5 3 1 3 2 3 1 1 3 2 2 1 3 1 0 5 7 7 7 7 8 8 13 18 17 18 20 20 23
16 15 14 15 12 6 5 7 9 9 9 9 7 3 4 4 1 2 2 2 1 2 1 1 3 3 3 4 4 4 3 2 4 4 2 2 3 2 3 0 3 2 1 1 1 4 3 4 6 5 4 7 5 3 0 2 3 4 3 4 3 2 3 2 3 1 2 2 2 4 2 1 1 1 6 7 7 8 11 12 12 17 17 13 15 23 23 24
15 14 14 13 8 4 3 7 9 8 9 8 3 3 5 3 1 2 2 2 2 1 2 1 3 4 4 3 2 3 2 2 3 4 3 3 4 2 4 4 3 3 2 2 1 1 1 3 4 2 3 6 4 2 3 3 1 2 3 4 3 3 3 1 3 1 2 2 3 4 2 0 2 2 6 7 8 9 12 13 12 17 14 10 15 23 24 25
14 12 13 10 4 3 4 7 8 9 10 7 3 5 4 1 2 1 2 3 2 2 2 2 4 5 4 3 3 2 2 1 3 4 4 3 2 1 2 3 3 3 3 2 0 1 2 3 5 4 3 2 4 3 2 4 1 2 2 4 1 3 3 1 2 3 2 0 3 3 1 0 1 3 5 8 10 9 11 13 12 15 13 11 16 21 21 23
12 10 9 6 3 4 5 7 8 10 11 5 5 4 1 3 2 2 2 1 1 1 2 4 4 4 3 4 3 4 2 1 3 3 2 2 1 1 1 3 2 2 3 2 1 1 1 3 5 4 2 2 5 5 2 2 1 1 1 1 2 3 5 4 1 0 3 2 1 1 1 1 1 1 4 7 8 6 7 11 12 13 12 11 15 17 17 20
11 8 6 3 3 5 5 6 8 11 9 4 5 2 2 3 3 4 2 0 1 3 4 1 1 2 1 2 3 4 4 3 3 3 1 2 1 2 2 3 3 0 2 3 1 1 1 3 5 3 2 3 8 5 2 1 2 2 1 3 2 1 4 3 1 2 3 1 1 2 2 1 2 1 3 2 3 3 5 6 8 11 11 11 13 14 15 17
12 8 4 1 3 5 5 7 9 9 6 4 3 1 2 1 2 3 2 2 1 3 5 2 1 0 1 0 2 4 3 2 2 2 1 1 1 2 1 2 1 2 2 4 1 1 2 1 5 2 2 5 9 4 2 4 4 2 3 3 2 2 0 1 1 1 1 1 1 2 1 1 2 2 1 0 2 3 4 3 4 6 8 11 15 16 17 18
12 8 2 1 3 4 4 7 9 8 4 4 1 1 1 2 3 2 3 2 2 3 3 2 1 1 1 2 1 3 2 1 0 2 1 0 1 2 2 2 1 4 4 4 2 0 2 1 3 3 2 2 5 3 1 4 6 4 2 2 2 2 3 1 1 2 2 2 2 0 1 2 2 2 2 3 3 2 3 2 2 4 6 10 13 16 18 20
11 6 1 1 3 3 4 8 7 4 3 2 2 2 1 2 2 2 4 1 1 2 1 2 2 1 1 2 1 1 2 2 2 1 0 0 1 3 3 2 1 2 4 5 3 0 2 2 2 4 4 2 2 1 1 0 2 3 3 3 3 1 1 2 0 1 3 3 2 2 1 3 1 2 4 4 3 2 3 2 2 3 5 8 11 13 16 18
9 4 1 1 1 2 5 6 4 2 2 1 2 1 1 1 1 2 3 2 2 2 2 4 3 2 2 1 1 1 1 2 1 1 1 1 0 1 2 3 3 1 2 4 2 1 1 1 1 3 3 2 1 3 4 3 2 2 2 2 0 0 1 2 0 2 2 3 2 3 2 3 0 2 3 3 1 2 3 2 1 2 4 7 9 12 14 16
5 1 1 1 2 2 4 3 2 2 1 1 1 2 2 1 1 2 4 3 2 1 2 3 2 2 3 2 1 2 2 1 0 1 1 2 2 2 3 2 2 1 1 1 1 1 2 3 2 2 2 2 4 4 3 2 2 3 2 2 2 1 3 4 2 2 1 2 1 2 1 2 1 1 2 2 1 1 2 1 2 3 5 7 10 11 12 13
4 3 3 2 4 2 3 2 3 3 1 2 3 3 4 2 1 2 2 2 1 1 1 1 1 2 2 1 1 2 2 2 2 1 1 2 3 6 7 5 3 0 3 1 1 1 1 2 2 2 3 3 5 3 2 2 3 3 2 2 2 1 0 3 3 2 2 1 1 2 0 3 2 0 2 2 1 1 3 4 4 4 5 7 9 10 10 11
6 5 4 3 6 3 0 0 1 2 4 4 4 3 3 2 3 2 2 2 2 2 2 1 2 2 1 1 2 2 2 2 1 2 2 1 3 6 8 6 4 2 2 1 2 2 1 1 2 2 3 5 6 5 4 4 3 2 2 2 1 1 1 2 1 2 1 2 3 4 2 3 1 0 1 1 2 3 5 6 6 5 5 6 8 9 10 11
6 4 3 3 7 6 2 2 2 1 3 3 3 4 3 1 2 3 3 3 3 4 3 1 2 3 2 2 2 1 1 1 1 1 1 1 4 5 6 3 3 2 2 3 6 5 2 1 2 3 2 0 1 2 3 3 3 1 2 3 2 2 2 1 1 2 0 2 3 4 3 2 1 0 1 1 2 4 4 5 6 4 4 5 7 9 10 11
3 1 1 1 5 7 3 2 2 2 2 1 2 3 1 0 2 1 2 2 3 4 3 1 2 3 3 2 2 2 1 0 1 1 1 1 3 4 5 5 1 0 3 7 7 4 3 2 1 4 4 4 5 4 4 1 1 2 3 5 3 2 1 2 2 1 2 2 1 2 4 4 2 2 2 2 1 1 2 4 4 4 4 4 6 8 9 10
1 1 1 2 2 3 2 2 2 1 1 1 0 2 2 2 2 0 1 1 3 4 3 2 2 3 1 2 2 1 2 1 2 0 2 2 3 4 5 4 2 3 8 7 4 3 4 3 2 3 2 4 5 4 2 2 1 1 2 4 4 4 3 4 2 3 3 3 2 4 4 6 5 5 4 4 3 3 4 4 4 4 4 4 5 7 8 9
3 2 1 2 1 2 2 2 1 1 2 2 1 1 1 2 2 1 2 1 3 4 2 1 1 2 4 4 3 1 1 3 3 2 1 1 2 4 4 5 4 3 5 4 4 3 5 1 1 2 2 3 2 2 2 2 1 2 2 3 3 4 3 3 3 4 4 3 4 4 6 6 5 5 6 5 5 5 5 5 5 3 3 3 4 5 6 7
4 4 2 3 3 3 3 3 1 1 3 3 2 1 2 2 3 3 2 2 2 0 3 1 5 3 4 4 4 2 2 1 2 4 2 1 1 2 2 2 3 3 3 3 3 3 4 0 1 2 3 5 4 3 1 2 1 1 2 3 2 1 1 1 2 2 3 3 3 6 6 5 4 6 6 5 4 5 5 5 4 2 2 2 3 4 5 5
5 4 2 3 3 3 2 3 1 1 1 2 2 3 3 3 4 3 1 2 2 1 2 3 6 4 5 5 5 3 6 7 4 4 4 3 0 0 1 1 1 3 4 2 1 2 3 0 1 3 3 5 5 4 2 1 1 3 4 4 3 2 1 0 0 1 2 3 2 4 4 3 4 4 4 4 6 6 6 6 5 4 3 1 2 3 4 5
8 5 3 2 2 1 1 1 2 2 1 1 2 3 2 3 5 3 0 1 4 4 4 6 6 3 3 3 4 6 10 10 8 8 7 5 2 3 2 2 2 2 4 1 0 2 3 1 1 4 3 4 5 5 6 5 3 3 5 4 4 4 1 1 2 2 3 4 3 4 3 3 5 3 4 4 7 8 8 8 7 6 4 2 0 2 3 4
11 7 5 3 2 2 2 1 3 3 2 3 3 3 2 3 5 4 2 3 4 3 4 8 9 5 2 3 6 9 12 11 10 8 7 5 4 4 4 3 4 2 1 1 1 1 2 3 1 3 2 4 5 5 4 5 5 4 5 3 4 4 2 1 2 3 4 5 5 4 4 5 4 4 5 4 6 8 9 9 7 5 4 2 1 1 3 3
Wind_Direction
9 7 7 7 7 6 4 1 359 356 352 347 345 347 348 346 344 347 354 356 359 9 22 28 28 27 22 17 7 345 326 2 21 25 13 3 350 348 9 44 120 101 75 66 79 104 113 137 181 148 136 139 137 150 157 154 153 156 113 118 193 187 188 190 188 193 171 257 277 240 332 345 303 326 328 329 327 322 323 325 343 341 281 260 259 262 262 225
9 8 6 5 7 6 4 1 358 355 353 350 346 346 346 344 343 348 355 358 6 19 29 35 33 30 28 23 18 9 0 8 34 42 16 3 348 327 351 45 141 111 69 57 66 79 96 131 160 161 157 142 126 142 156 167 164 152 95 130 216 198 206 209 216 247 249 267 272 283 296 270 278 314 322 322 317 324 325 325 337 341 335 299 262 258 253 219
9 8 5 4 3 2 2 360 357 355 354 353 349 347 347 345 344 352 1 4 15 28 36 40 38 37 39 42 34 18 10 22 70 39 8 358 350 330 348 84 144 110 61 51 51 51 63 99 138 162 163 137 115 147 151 158 176 180 117 125 242 211 224 236 236 250 256 266 269 289 296 271 293 299 308 300 300 317 310 319 330 328 331 322 249 224 216 204
7 6 5 3 1 359 359 358 357 356 357 356 351 349 348 346 347 357 6 10 24 37 40 43 43 40 47 52 33 16 25 58 47 13 358 358 352 339 15 115 130 92 57 49 46 51 57 74 106 130 136 124 113 138 134 161 178 177 149 177 233 198 207 247 248 257 262 269 267 289 308 297 301 289 278 277 293 309 303 319 322 319 323 302 216 189 189 186
4 3 3 2 0 358 356 357 358 358 358 357 352 349 350 348 349 359 9 20 33 40 39 41 39 37 47 40 17 18 44 58 14 12 9 9 8 35 92 113 109 80 60 52 54 59 55 64 89 92 93 90 85 107 45 290 176 167 194 211 229 196 198 251 254 264 268 273 276 294 314 297 297 281 263 243 230 260 303 335 338 336 331 280 217 190 183 179
0 360 360 0 360 358 355 356 357 358 357 355 352 350 350 347 348 359 12 26 37 39 37 39 33 32 39 19 15 35 58 75 19 27 33 39 91 103 103 102 91 78 62 58 60 61 56 64 80 73 70 63 59 99 11 341 181 177 281 257 267 249 233 260 258 263 273 277 277 268 264 280 280 279 264 232 242 256 308 339 349 358 0 268 218 193 185 181
357 356 356 357 358 357 355 355 357 357 355 353 351 349 348 347 350 1 13 32 42 37 31 34 26 22 22 14 24 47 62 73 34 35 47 80 109 107 100 90 83 77 60 59 58 60 59 62 73 67 66 63 38 68 14 14 145 144 297 283 305 288 255 271 269 269 275 271 270 264 241 250 235 246 259 251 254 253 314 335 348 3 22 228 207 194 189 182
354 354 352 352 354 355 354 354 356 355 353 352 349 347 347 346 352 2 16 40 42 33 29 26 18 13 14 16 24 43 66 67 41 39 53 93 114 109 99 85 77 64 57 62 54 56 58 55 62 54 65 85 36 341 18 32 101 113 246 283 304 293 284 290 281 273 274 268 265 248 214 230 227 222 245 262 255 233 344 335 339 357 27 166 200 193 187 182
351 351 350 349 350 352 353 352 354 355 352 351 349 347 347 347 354 6 18 42 43 33 23 11 9 9 10 11 17 39 67 60 45 41 51 84 107 107 100 84 64 50 60 72 58 58 56 50 50 44 99 108 43 359 15 42 348 229 264 292 295 299 310 312 296 290 283 277 260 219 217 237 227 220 266 253 227 211 334 313 325 343 358 255 200 196 190 185
347 348 347 346 346 349 351 350 352 354 352 350 350 350 350 350 356 7 19 44 40 24 12 3 1 4 8 5 16 59 66 40 37 25 34 64 81 92 90 63 45 42 56 80 75 64 52 45 36 43 113 78 26 342 5 96 295 297 292 291 289 303 314 327 335 10 348 302 237 209 234 230 207 201 267 235 206 239 284 280 307 315 301 280 211 200 195 191
345 345 344 344 344 346 348 348 350 352 351 350 351 353 355 356 359 8 21 40 26 12 4 355 352 356 358 350 2 82 57 17 18 359 359 27 54 70 52 21 18 25 39 74 93 70 43 36 21 22 78 356 346 314 310 49 314 310 312 302 308 330 353 21 17 31 4 324 207 206 234 230 185 192 235 235 239 265 282 291 298 296 286 263 221 207 201 198
344 344 342 342 342 344 346 346 346 349 349 348 349 352 356 358 0 7 18 29 9 4 358 350 351 352 350 347 9 94 29 0 8 359 2 0 19 37 357 349 348 358 12 47 92 62 28 23 8 1 345 334 334 338 336 324 319 313 355 329 321 359 45 24 7 336 343 327 212 204 296 313 278 213 223 233 248 259 278 289 285 284 282 260 224 210 206 206
343 343 341 340 340 342 344 344 344 346 345 344 346 345 349 355 357 1 10 22 3 358 356 349 351 348 345 356 18 4 346 347 345 14 37 13 15 3 334 328 323 329 343 24 57 9 358 356 353 351 337 317 307 326 320 320 321 301 31 71 344 9 16 333 350 331 345 12 246 175 274 299 272 260 266 249 248 261 272 270 267 274 282 270 235 213 208 211
342 343 340 339 340 340 342 343 342 344 343 341 343 337 342 351 352 353 356 0 354 353 355 350 355 351 339 339 296 283 295 324 0 29 0 334 343 347 341 332 326 324 312 324 342 328 331 333 338 346 338 310 296 310 323 338 2 348 33 60 28 44 305 311 336 348 17 13 328 119 160 275 276 300 340 333 276 263 257 252 255 271 281 277 252 222 214 214
342 342 341 339 339 340 341 341 341 343 341 338 341 335 339 349 348 348 355 2 355 352 354 349 354 348 334 331 225 264 252 270 323 342 325 315 312 321 3 352 314 308 306 306 319 318 312 312 324 346 338 310 329 355 353 357 10 25 74 345 353 71 305 306 322 47 43 317 339 79 140 278 277 317 6 4 318 257 249 255 260 270 275 273 265 241 223 219
343 342 341 339 339 341 340 339 341 342 341 338 337 337 336 339 339 344 12 10 356 350 349 340 346 347 337 3 90 349 336 318 311 297 293 302 310 313 329 324 305 292 325 339 340 322 308 311 345 20 0 350 43 62 42 13 351 5 77 161 321 39 355 317 322 22 43 318 355 55 138 274 290 337 3 9 1 311 271 287 278 276 277 268 268 261 239 225
344 342 341 339 339 342 340 338 339 340 343 339 336 341 334 333 340 19 47 14 357 341 335 326 330 332 320 124 97 26 11 347 320 300 287 281 294 302 293 304 317 321 338 41 23 348 338 3 88 57 26 49 68 77 58 23 334 326 23 53 323 10 13 329 319 341 23 40 15 24 120 251 297 340 2 15 25 34 36 11 339 319 298 281 275 272 259 240
345 342 341 340 339 342 340 336 337 337 343 342 340 344 332 334 353 83 27 0 344 326 329 332 340 345 279 195 249 340 343 331 311 295 278 269 273 272 276 295 300 305 351 103 45 30 36 47 89 90 18 20 27 75 85 223 218 248 334 14 332 337 321 300 291 320 6 33 29 18 18 316 328 352 5 16 30 39 38 27 18 8 338 303 289 282 278 262
345 343 342 341 340 342 340 336 336 335 337 338 338 343 340 341 347 225 347 343 331 313 323 321 331 278 251 281 295 321 325 308 305 302 272 272 257 228 230 273 277 289 76 99 0 26 34 33 57 51 330 301 270 125 161 197 173 178 202 170 193 286 292 272 259 280 342 32 26 19 18 343 349 4 4 11 27 36 30 23 21 14 6 349 316 296 294 285
344 344 342 342 341 342 340 336 336 334 338 337 332 347 9 6 3 315 338 339 330 301 306 299 289 273 274 285 301 325 324 290 303 325 250 250 208 188 179 240 254 12 48 89 292 13 45 49 4 241 228 239 238 186 165 168 151 141 143 154 196 217 271 276 267 288 298 63 16 29 54 10 359 7 3 13 28 31 22 17 14 8 7 3 348 325 310 300
342 344 343 341 342 344 340 336 337 335 346 354 356 24 50 27 19 322 334 339 335 320 311 298 272 264 270 287 306 322 325 282 312 356 197 183 175 179 174 89 90 39 338 324 285 10 56 55 260 232 220 224 230 183 140 134 145 132 142 180 276 211 242 267 253 297 304 84 8 26 68 17 348 359 11 25 34 28 17 14 11 6 5 2 359 350 332 314
340 343 343 340 343 346 339 336 341 344 0 24 40 64 75 46 15 323 329 316 310 321 316 290 258 256 268 291 306 315 313 287 347 9 157 156 168 195 210 82 84 167 322 13 21 10 32 306 257 243 210 163 122 139 133 120 140 140 128 133 289 241 259 291 280 310 334 83 0 24 80 20 331 341 31 40 44 30 22 20 16 13 9 4 1 356 347 334
338 340 341 341 344 346 341 340 351 45 45 60 62 68 69 39 7 332 326 295 300 321 334 297 258 277 300 307 308 311 296 282 326 314 172 169 172 156 158 115 76 49 2 41 131 61 8 256 254 235 131 114 69 81 107 67 77 138 118 123 254 268 264 286 288 331 351 52 130 112 84 7 339 357 50 50 48 37 26 21 22 21 14 6 3 360 356 350
338 338 339 341 346 346 341 342 19 115 97 72 60 63 46 1 342 324 320 293 287 325 0 357 272 328 333 335 324 330 310 264 278 287 195 197 177 129 172 137 87 81 319 84 134 137 247 254 256 97 93 116 100 42 97 84 343 287 169 157 205 245 209 226 277 349 358 3 63 91 46 333 350 8 16 33 40 36 22 16 16 16 14 10 8 6 2 359
339 337 335 341 347 347 342 341 54 133 132 69 42 25 0 328 322 320 322 334 292 318 8 28 21 17 345 327 223 290 297 267 320 345 205 208 192 170 175 123 105 214 231 149 120 144 261 271 323 81 67 79 99 323 186 148 21 313 235 198 199 202 206 226 326 27 36 350 332 80 56 300 317 11 2 0 19 24 16 14 8 6 10 10 9 9 6 5
340 336 333 340 347 350 351 3 13 203 198 323 344 340 332 317 320 320 331 61 0 313 359 17 13 25 351 335 223 273 297 314 352 353 209 210 215 188 156 84 63 322 191 167 108 200 260 315 38 81 81 74 55 315 244 153 106 328 255 206 187 163 151 160 85 67 82 270 296 77 116 252 310 5 358 348 4 20 13 9 3 3 8 7 7 8 8 12
341 335 332 339 347 351 359 355 344 326 230 292 307 320 320 318 321 312 352 57 359 304 324 332 350 5 354 10 222 228 265 317 343 3 175 197 218 184 185 297 278 225 177 125 26 288 250 341 21 52 69 62 35 315 239 144 114 239 251 149 133 134 148 163 121 117 198 252 322 19 110 168 293 315 337 343 1 22 17 5 356 360 5 5 7 8 10 18
341 334 330 338 345 349 351 334 335 341 310 310 312 318 320 322 320 318 73 80 297 314 17 318 337 0 1 42 56 177 206 324 355 16 25 162 211 134 146 232 176 195 34 98 241 271 237 323 11 66 51 26 264 233 197 153 135 241 223 122 120 134 146 150 114 121 10 28 310 324 41 116 272 284 340 4 22 18 12 0 348 352 1 2 4 8 9 19
340 332 327 335 342 344 344 332 321 325 322 320 323 322 322 325 320 58 77 104 291 335 63 342 347 348 360 49 42 22 44 34 28 355 7 101 3 55 109 217 152 142 38 87 184 255 285 249 220 126 111 242 242 240 178 169 197 225 150 92 64 69 72 87 98 113 48 46 247 289 333 177 272 319 356 14 25 9 356 348 341 345 356 358 1 10 11 15
337 330 324 331 338 340 341 333 313 314 320 323 327 328 330 335 27 72 54 186 313 319 289 335 334 341 1 31 16 10 37 29 12 11 50 79 47 65 96 70 93 110 24 25 134 257 306 284 206 114 164 230 233 270 142 186 220 115 114 61 37 38 34 44 56 90 71 343 251 274 311 145 231 308 12 27 14 355 346 349 341 345 357 0 7 22 24 23
334 327 322 327 333 335 335 332 320 319 321 325 332 339 349 2 68 88 90 246 293 325 337 347 330 6 26 50 6 356 11 2 6 20 38 50 41 41 60 60 46 56 14 3 352 308 341 18 12 294 306 335 348 104 51 321 8 82 95 65 67 350 10 27 358 42 95 265 255 266 350 84 138 265 25 32 13 353 346 351 343 354 7 11 22 32 32 33
331 323 319 323 325 325 331 332 329 327 324 326 335 347 78 45 28 88 263 307 303 307 352 341 325 8 34 46 20 339 346 353 2 29 40 31 46 33 33 125 116 27 358 329 334 337 353 16 314 305 331 22 41 138 334 353 27 64 75 69 81 350 12 8 324 5 188 238 258 285 327 72 114 1 32 23 11 351 343 353 6 25 24 17 29 38 38 41
330 320 317 320 316 309 338 346 342 336 326 327 334 4 85 75 38 230 265 330 256 266 9 20 336 6 48 44 10 330 359 2 348 17 33 47 66 32 345 34 130 75 355 246 4 0 342 310 337 350 345 6 42 115 274 320 3 34 95 103 106 99 57 305 271 326 277 244 312 319 348 76 217 74 40 13 349 344 356 10 35 49 33 7 28 43 43 45
329 320 318 324 315 278 320 349 349 342 332 333 349 68 67 74 216 239 272 269 257 339 40 43 347 6 42 53 335 330 34 358 344 20 13 32 55 16 334 341 29 84 97 92 69 54 79 299 320 339 320 352 32 125 164 170 352 344 158 131 119 151 138 236 230 204 247 247 328 338 27 89 256 61 42 1 341 354 14 20 44 59 41 9 34 46 42 43
331 322 321 333 335 287 313 338 344 343 336 338 42 78 82 158 237 254 245 252 282 354 354 15 46 38 15 345 325 10 75 302 352 38 27 39 74 354 330 311 331 77 100 63 311 174 133 253 267 275 279 20 19 297 187 121 89 281 162 98 67 180 142 107 187 172 173 83 357 355 32 40 63 71 42 8 354 5 24 21 33 51 40 22 37 45 40 39
332 323 321 336 351 340 342 337 335 340 338 354 67 68 147 198 195 178 209 249 84 93 344 344 43 56 350 319 331 350 20 8 24 43 16 31 94 239 265 259 262 74 96 117 210 206 43 278 280 320 313 61 22 310 260 112 166 232 77 94 236 176 119 107 183 45 64 76 356 282 179 126 155 109 54 18 351 356 27 21 23 33 32 30 38 43 41 39
337 331 325 326 352 4 356 338 336 337 340 40 93 99 217 203 176 179 196 107 111 98 83 23 354 54 329 319 316 316 348 13 25 41 4 353 332 234 272 271 244 159 136 154 229 229 137 274 293 354 315 334 6 346 269 8 79 128 164 214 219 106 91 106 132 16 38 79 288 270 192 177 221 212 83 36 333 22 50 33 23 20 20 27 34 40 42 41
342 342 342 338 3 8 354 338 336 331 342 60 85 249 210 188 206 195 167 141 138 72 83 125 233 110 183 217 295 297 345 11 0 32 24 323 317 215 239 278 260 29 87 138 78 7 111 293 297 337 266 308 357 23 231 332 8 90 168 178 125 106 89 38 126 116 70 152 277 306 280 227 217 213 109 317 302 41 48 42 37 15 10 23 29 33 36 38
341 343 10 62 7 8 353 332 328 330 6 73 95 249 194 232 253 200 157 139 104 82 92 178 187 66 166 174 248 289 351 28 66 50 100 106 328 222 207 225 271 22 51 122 131 294 79 74 277 299 299 308 2 34 190 321 342 6 41 31 44 130 162 161 176 167 133 153 204 159 309 272 227 167 161 209 254 345 26 29 41 17 15 29 33 33 33 34
337 341 27 52 1 6 341 328 326 350 47 97 188 212 237 258 251 159 156 163 90 99 147 191 143 87 234 219 227 267 14 48 119 83 149 198 300 258 228 199 212 3 43 86 100 129 53 69 248 297 337 20 17 13 158 210 318 348 21 20 1 14 149 156 127 84 120 144 178 144 235 273 277 130 165 194 259 332 17 16 25 34 39 41 42 41 36 35
334 338 295 218 1 329 329 334 341 49 79 127 201 219 263 241 209 155 158 160 131 129 149 157 150 151 180 190 245 221 65 55 124 104 283 242 272 276 248 206 196 257 38 57 63 134 107 104 211 311 351 27 247 225 191 180 192 173 83 76 179 263 120 131 279 320 94 123 165 155 188 263 328 122 167 167 258 333 3 2 24 66 68 57 52 49 42 39
325 312 307 216 196 299 334 346 349 37 106 194 254 251 242 227 201 177 160 136 111 103 114 132 149 162 165 178 223 177 123 103 179 100 235 229 199 222 246 217 189 185 99 77 309 206 149 113 92 324 289 235 255 243 179 173 166 144 111 99 137 122 91 121 205 254 93 80 123 122 130 267 285 116 144 135 217 294 10 83 119 81 71 65 59 56 49 45
298 274 297 238 205 266 357 354 340 355 291 273 297 267 240 222 171 160 167 151 107 70 70 103 164 182 194 191 182 175 148 155 184 182 217 245 236 242 253 263 279 1 104 95 295 216 143 88 79 317 301 298 301 324 51 59 86 93 16 34 96 339 102 151 179 176 137 156 128 88 348 263 265 164 135 113 93 97 101 118 121 95 74 64 60 57 52 49
293 285 282 219 201 216 16 163 307 321 287 306 340 314 274 234 179 158 182 195 172 137 121 138 187 186 205 84 115 184 177 144 192 220 194 182 244 271 287 281 249 180 145 190 170 163 188 54 86 57 4 346 339 352 3 358 32 77 311 321 14 6 54 147 151 80 110 200 149 128 228 248 233 56 45 45 63 85 102 114 115 101 78 63 59 56 52 51
304 282 259 202 198 207 210 182 171 221 270 308 334 308 311 294 205 188 179 177 163 144 135 201 184 146 109 70 67 19 100 124 246 241 183 222 258 290 340 348 196 197 261 181 144 135 137 99 104 112 100 335 303 300 276 295 337 343 313 331 359 32 45 180 170 84 171 222 131 138 207 229 229 62 42 15 43 74 102 122 120 106 87 68 61 59 54 52
323 270 230 163 187 197 215 244 176 177 244 259 313 291 278 283 258 206 150 152 153 131 103 93 152 113 59 61 54 347 335 15 351 157 182 263 263 284 341 352 296 71 100 124 122 109 101 72 105 139 150 178 191 223 229 190 23 333 322 338 356 0 5 113 109 143 193 168 126 215 191 157 174 198 195 284 324 104 172 157 132 118 108 85 67 65 61 57
280 258 215 136 188 213 229 255 161 152 253 182 167 286 246 245 278 257 155 148 142 134 90 41 122 138 143 138 130 288 294 327 341 133 195 234 257 289 332 5 29 100 111 105 65 69 96 38 16 120 152 196 191 225 240 137 128 242 293 326 341 349 23 101 150 219 161 113 279 254 167 149 186 208 208 236 238 218 221 194 157 135 112 89 69 63 60 57
231 270 229 160 211 229 202 224 174 157 251 209 209 290 278 279 275 205 201 107 105 127 117 355 296 183 182 168 143 171 331 353 325 292 221 235 290 322 355 34 52 90 109 71 23 79 110 35 319 85 349 287 237 249 223 142 173 209 218 263 306 352 34 113 209 215 146 142 226 199 154 162 195 210 214 220 211 203 205 185 165 147 120 101 80 68 59 54
246 269 247 182 215 222 204 245 264 191 229 219 234 257 206 241 255 236 222 75 53 40 119 188 266 237 176 159 131 143 203 171 286 277 231 172 342 2 27 33 39 58 81 69 34 79 106 5 262 90 5 313 293 283 215 106 23 276 239 236 223 349 316 208 251 226 153 154 182 159 161 193 213 205 210 213 196 191 188 177 173 169 154 119 84 76 68 61
241 250 236 202 240 254 233 251 225 113 266 230 233 250 206 197 228 240 225 125 136 264 128 184 236 213 164 155 136 177 214 184 191 249 200 149 1 303 153 209 225 15 19 56 47 51 97 164 287 79 34 312 307 322 336 12 309 279 271 242 176 132 320 281 225 202 119 100 104 128 146 238 254 202 177 161 162 170 176 179 190 202 184 140 76 74 69 64
229 235 238 211 255 258 203 244 113 118 295 240 212 246 222 206 217 199 164 210 184 182 184 193 197 163 124 145 171 231 238 210 209 233 205 169 186 194 175 192 178 21 358 15 178 25 90 115 14 65 48 306 314 332 322 324 335 321 309 271 189 155 157 203 192 198 155 130 110 103 127 243 246 177 132 145 167 176 186 194 207 215 199 184 45 56 55 52
226 228 226 205 258 268 173 99 84 120 229 237 212 230 235 242 229 171 114 289 234 199 220 199 170 136 107 199 216 246 255 242 242 251 233 222 231 202 202 220 195 180 158 124 58 344 108 120 126 90 80 288 308 328 319 349 17 345 312 279 184 163 159 199 255 239 182 144 130 148 202 234 216 155 140 166 185 192 199 203 214 220 201 197 238 21 33 29